Hourly Data Report for May 07, 2003

SHERBROOKE A
QUEBEC

45°26'00.000" N
71°41'00.000" W
241.40 m
7028124
71610
YSC

Download Data

Hourly Data (May 2003)
Hourly Data Report for May 7, 2003
TIME
LST
Temp Definition
°C
Dew Point Definition
°C
Rel Hum Definition
%
Precip. Amount Definition
mm

Wind Dir Definition
10's deg

Wind Spd Definition
km/h
Visibility Definition
km
Stn Press Definition
kPa
Hmdx Definition


Wind Chill Definition


Weather Definition


00:00 8.8 8.2 96   7 4 15.0 98.10      
01:00 8.9 8.3 96     0 15.0 98.07      
02:00 8.7 8.3 97     0 8.0 98.04      
03:00 8.8 8.3 97     0 8.0 98.12     Drizzle
04:00 8.8 8.4 97     0 4.8 98.08      
05:00 9.0 8.5 97     0 1.6 98.09     Drizzle
06:00 9.0 8.6 97   28 11 2.4 98.19      
07:00 8.4 7.9 97   27 17 4.0 98.24     Drizzle, Fog
08:00 7.3 6.9 97   27 15 3.2 98.33     Drizzle, Fog
09:00 7.2 6.7 97   27 15 4.8 98.40     Drizzle, Fog
10:00 7.6 6.7 94   28 11 24.1 98.46     Cloudy
11:00 8.6 7.2 91   25 7 24.1 98.46     Cloudy
12:00 9.0 6.6 85   29 7 24.1 98.46     Cloudy
13:00 9.7 5.9 77   27 15 24.1 98.52     Cloudy
14:00 9.9 5.5 74   29 11 24.1 98.52     Cloudy
15:00 10.1 4.8 70   31 13 24.1 98.52     Cloudy
16:00 10.4 4.4 66   33 11 24.1 98.56     Mostly Cloudy
17:00 10.5 4.0 64   33 6 15.0 98.63      
18:00 10.4 3.5 62     0 15.0 98.62      
19:00 9.4 4.6 72   14 4 15.0 98.68      
20:00 8.2 3.8 74   9 6 15.0 98.68      
21:00 4.6 3.1 90   13 6 15.0 98.67      
22:00 3.0 2.6 97   2 4 1.6 98.69      
23:00 1.7 1.1 96   3 4 0.5 98.67      

Notes on Data Quality.

Legend

  • E = Estimated
  • M = Missing
  • NA = Not Available*
  • [empty] = Indicates an unobserved value
Date modified: